,,Stat6,,Stat2,,Stat8,,Stat9,,Stat10,,Wind1,,Wind1,
time,status,PA1M_AVG,status,PR1M_SUM,status,RH1M_AVG,status,SR1M_AVG,status,TA1M_AVG,status,W1dAve1m,status,W1sAve1m,
2007-05-23, 00:00:01,VALID,917.859,VALID,0,VALID,100,VALID,-0.0169808,VALID,20.1306,VALID,171,VALID,0.550409,
2007-05-23, 00:01:00,VALID,917.84,VALID,0,VALID,100,VALID,-0.0169808,VALID,20.1081,VALID,172,VALID,0.579545,
2007-05-23, 00:02:01,VALID,917.805,VALID,0,VALID,100,VALID,-0.0339617,VALID,20.0887,VALID,179,VALID,0.596168,
2007-05-23, 00:03:00,VALID,917.789,VALID,0,VALID,100,VALID,-0.0339617,VALID,20.0792,VALID,179,VALID,0.404046,
2007-05-23, 00:04:00,VALID,917.778,VALID,0,VALID,100,VALID,-0.0169808,VALID,20.0727,VALID,173,VALID,0.667791,
2007-05-23, 00:05:00,VALID,917.773,VALID,0,VALID,100,VALID,-0.0339617,VALID,20.0695,VALID,166,VALID,0.634993,
2007-05-23, 00:06:00,VALID,917.761,VALID,0,VALID,100,VALID,-0.0339617,VALID,20.053,VALID,160,VALID,0.90767,
2007-05-23, 00:07:01,VALID,917.76,VALID,0,VALID,100,VALID,-0.0169808,VALID,20.0527,VALID,163,VALID,0.696948,
2007-05-23, 00:08:00,VALID,917.729,VALID,0,VALID,100,VALID,-0.0169808,VALID,20.0627,VALID,159,VALID,0.972917,
2007-05-23, 00:09:01,VALID,917.717,VALID,0,VALID,100,VALID,-0.0169808,VALID,20.0822,VALID,161,VALID,0.977493,
2007-05-23, 00:10:00,VALID,917.709,VALID,0,VALID,100,VALID,-0.0509425,VALID,20.1116,VALID,157,VALID,0.788872,
2007-05-23, 00:11:00,VALID,917.692,VALID,0,VALID,100,VALID,-0.0849042,VALID,20.1339,VALID,152,VALID,0.712081,
2007-05-23, 00:12:00,VALID,917.676,VALID,0,VALID,100,VALID,-0.0509425,VALID,20.1571,VALID,152,VALID,0.606641,
2007-05-23, 00:13:01,VALID,917.676,VALID,0,VALID,100,VALID,-0.0339617,VALID,20.1958,VALID,152,VALID,0.609189,
2007-05-23, 00:14:00,VALID,917.657,VALID,0,VALID,99.8375,VALID,-0.0339617,VALID,20.2317,VALID,142,VALID,0.689596,
2007-05-23, 00:15:01,VALID,917.653,VALID,0,VALID,99.6862,VALID,-0.0339617,VALID,20.2509,VALID,142,VALID,0.664444,
2007-05-23, 00:16:00,VALID,917.65,VALID,0,VALID,99.4764,VALID,-0.0509425,VALID,20.2672,VALID,131,VALID,0.775298,
2007-05-23, 00:17:00,VALID,917.642,VALID,0,VALID,99.1585,VALID,-0.0679233,VALID,20.2542,VALID,109,VALID,0.914931,
2007-05-23, 00:18:00,VALID,917.648,VALID,0,VALID,99.2322,VALID,-0.0339617,VALID,20.2347,VALID,109,VALID,0.903832,
2007-05-23, 00:19:01,VALID,917.64,VALID,0,VALID,99.2246,VALID,-0.0679233,VALID,20.2347,VALID,116,VALID,0.919444,
2007-05-23, 00:20:00,VALID,917.627,VALID,0,VALID,99.1623,VALID,-0.0509425,VALID,20.2217,VALID,123,VALID,0.790551,
2007-05-23, 00:21:00,VALID,917.613,VALID,0,VALID,99.2271,VALID,-0.101885,VALID,20.2152,VALID,124,VALID,0.704368,
2007-05-23, 00:22:01,VALID,917.628,VALID,0,VALID,99.2691,VALID,-0.0849042,VALID,20.2087,VALID,126,VALID,0.525,
2007-05-23, 00:23:00,VALID,917.633,VALID,0,VALID,99.3556,VALID,-0.0509425,VALID,20.2122,VALID,167,VALID,1.17133,
2007-05-23, 00:24:00,VALID,917.621,VALID,0,VALID,99.4891,VALID,-0.0169808,VALID,20.2082,VALID,166,VALID,1.15952,
2007-05-23, 00:25:00,VALID,917.618,VALID,0,VALID,99.0923,VALID,-0.0509425,VALID,20.2152,VALID,166,VALID,1.12016,
2007-05-23, 00:26:00,VALID,917.589,VALID,0,VALID,98.8749,VALID,-0.0169808,VALID,20.173,VALID,183,VALID,0.545015,
2007-05-23, 00:27:00,VALID,917.607,VALID,0,VALID,98.7948,VALID,0,VALID,20.1049,VALID,183,VALID,0.384588,
2007-05-23, 00:28:00,VALID,917.601,VALID,0,VALID,99.0249,VALID,-0.0849042,VALID,20.0627,VALID,173,VALID,0.865189,
2007-05-23, 00:29:00,VALID,917.595,VALID,0,VALID,99.4026,VALID,-0.0339617,VALID,20.0303,VALID,181,VALID,0.745833,
2007-05-23, 00:30:01,VALID,917.572,VALID,0,VALID,99.7269,VALID,-0.0509425,VALID,20.0046,VALID,188,VALID,0.952951,
2007-05-23, 00:31:00,VALID,917.567,VALID,0,VALID,99.8884,VALID,-0.0169808,VALID,20.0203,VALID,181,VALID,0.579723,
2007-05-23, 00:32:01,VALID,917.566,VALID,0,VALID,99.3861,VALID,-0.0169808,VALID,19.9908,VALID,107,VALID,1.13516,
2007-05-23, 00:33:01,VALID,917.57,VALID,0,VALID,99.3721,VALID,0,VALID,19.9164,VALID,121,VALID,1.17678,
2007-05-23, 00:34:01,VALID,917.563,VALID,0,VALID,99.9184,VALID,-0.0509425,VALID,19.907,VALID,126,VALID,1.42368,
2007-05-23, 00:35:01,VALID,917.532,VALID,0,VALID,100,VALID,-0.0169808,VALID,19.9459,VALID,131,VALID,0.774639,
2007-05-23, 00:36:01,VALID,917.534,VALID,0,VALID,100,VALID,-0.0169808,VALID,20.0303,VALID,131,VALID,0.466406,
2007-05-23, 00:37:01,VALID,917.544,VALID,0,VALID,99.6633,VALID,-0.0169808,VALID,20.1084,VALID,136,VALID,1.47691,
2007-05-23, 00:38:00,VALID,917.494,VALID,0,VALID,99.1991,VALID,-0.0339617,VALID,20.1858,VALID,160,VALID,1.01272,
2007-05-23, 00:39:01,VALID,917.483,VALID,0,VALID,98.8164,VALID,-0.0169808,VALID,20.2801,VALID,151,VALID,0.773438,
2007-05-23, 00:40:00,VALID,917.479,VALID,0,VALID,98.0547,VALID,-0.0169808,VALID,20.3643,VALID,66,VALID,0.89881,
2007-05-23, 00:41:01,VALID,917.451,VALID,0,VALID,97.0107,VALID,-0.0339617,VALID,20.5041,VALID,112,VALID,1.06214,
2007-05-23, 00:42:01,VALID,917.453,VALID,0,VALID,95.762,VALID,-0.0169808,VALID,20.6406,VALID,106,VALID,0.73274,
2007-05-23, 00:43:01,VALID,917.442,VALID,0,VALID,94.8884,VALID,-0.0509425,VALID,20.6439,VALID,52,VALID,0.840402,
2007-05-23, 00:44:01,VALID,917.419,VALID,0,VALID,94.821,VALID,-0.0509425,VALID,20.5784,VALID,116,VALID,0.972756,
2007-05-23, 00:45:01,VALID,917.363,VALID,0,VALID,95.1147,VALID,-0.0509425,VALID,20.5755,VALID,160,VALID,0.260719,
2007-05-23, 00:46:01,VALID,917.359,VALID,0,VALID,94.807,VALID,-0.0509425,VALID,20.5303,VALID,62,VALID,0.481179,
2007-05-23, 00:47:01,VALID,917.379,VALID,0,VALID,94.8706,VALID,-0.0509425,VALID,20.4391,VALID,88,VALID,0.834666,
2007-05-23, 00:48:01,VALID,917.35,VALID,0,VALID,95.4276,VALID,-0.0509425,VALID,20.4035,VALID,154,VALID,0.991461,
2007-05-23, 00:49:01,VALID,917.312,VALID,0,VALID,95.4937,VALID,0,VALID,20.3578,VALID,203,VALID,0.805233,
2007-05-23, 00:50:01,VALID,917.322,VALID,0,VALID,95.6603,VALID,-0.0169808,VALID,20.3191,VALID,118,VALID,0.669271,
2007-05-23, 00:51:01,VALID,917.331,VALID,0,VALID,96.0494,VALID,0,VALID,20.2566,VALID,94,VALID,0.666606,
2007-05-23, 00:52:00,VALID,917.322,VALID,0,VALID,96.338,VALID,-0.0339617,VALID,20.2442,VALID,168,VALID,0.471799,
2007-05-23, 00:53:00,VALID,917.297,VALID,0,VALID,96.5974,VALID,0,VALID,20.2182,VALID,169,VALID,0.227653,
2007-05-23, 00:54:00,VALID,917.295,VALID,0,VALID,96.7882,VALID,0,VALID,20.2185,VALID,169,VALID,0.212798,
2007-05-23, 00:55:00,VALID,917.293,VALID,0,VALID,96.6521,VALID,-0.0679233,VALID,20.1633,VALID,121,VALID,0.769077,
2007-05-23, 00:56:00,VALID,917.227,VALID,0,VALID,97.0285,VALID,-0.0339617,VALID,20.0919,VALID,160,VALID,0.49343,
2007-05-23, 00:57:00,VALID,917.211,VALID,0,VALID,97.9428,VALID,-0.0679233,VALID,20.0757,VALID,215,VALID,0.782158,
2007-05-23, 00:58:00,VALID,917.207,VALID,0,VALID,98.22,VALID,-0.0169808,VALID,20.0984,VALID,133,VALID,0.328852,
2007-05-23, 00:59:00,VALID,917.193,VALID,0,VALID,98.1628,VALID,-0.0679233,VALID,20.0754,VALID,125,VALID,0.232599,
2007-05-23, 01:00:00,VALID,917.193,VALID,0,VALID,97.822,VALID,-0.0169808,VALID,20.0198,VALID,124,VALID,0.0532986,
2007-05-23, 01:01:00,VALID,917.167,VALID,0,VALID,97.3134,VALID,-0.0339617,VALID,19.8843,VALID,50,VALID,0.845238,
2007-05-23, 01:02:00,VALID,917.174,VALID,0,VALID,97.6618,VALID,-0.0169808,VALID,19.7639,VALID,31,VALID,0.425694,
2007-05-23, 01:03:00,VALID,917.172,VALID,0,VALID,97.9657,VALID,-0.0169808,VALID,19.6921,VALID,56,VALID,0.756424,
2007-05-23, 01:04:00,VALID,917.178,VALID,0,VALID,98.5277,VALID,-0.0169808,VALID,19.6634,VALID,59,VALID,0.480035,
2007-05-23, 01:05:00,VALID,917.149,VALID,0,VALID,99.0555,VALID,-0.0509425,VALID,19.6928,VALID,80,VALID,0.320313,
2007-05-23, 01:06:00,VALID,917.132,VALID,0,VALID,99.1508,VALID,-0.0339617,VALID,19.715,VALID,131,VALID,0.147711,
2007-05-23, 01:07:00,VALID,917.127,VALID,0,VALID,99.0707,VALID,-0.0169808,VALID,19.7213,VALID,131,VALID,0.194041,
2007-05-23, 01:08:00,VALID,917.117,VALID,0,VALID,98.749,VALID,-0.0169808,VALID,19.7253,VALID,130,VALID,0.228051,
2007-05-23, 01:09:00,VALID,917.107,VALID,0,VALID,98.5087,VALID,-0.0169808,VALID,19.7023,VALID,130,VALID,0.044779,
2007-05-23, 01:10:00,VALID,917.073,VALID,0,VALID,98.3993,VALID,-0.0169808,VALID,19.6993,VALID,130,VALID,0.0485491,
2007-05-23, 01:11:00,VALID,917.086,VALID,0,VALID,98.6752,VALID,-0.0169808,VALID,19.7215,VALID,130,VALID,0.137251,
2007-05-23, 01:12:00,VALID,917.072,VALID,0,VALID,98.7223,VALID,-0.0509425,VALID,19.7899,VALID,128,VALID,0.641006,
2007-05-23, 01:13:00,VALID,917.073,VALID,0,VALID,98.2289,VALID,0,VALID,19.907,VALID,127,VALID,0.487723,
2007-05-23, 01:14:00,VALID,917.069,VALID,0,VALID,97.5931,VALID,-0.0509425,VALID,19.9686,VALID,163,VALID,0.776414,
2007-05-23, 01:15:00,VALID,917.04,VALID,0,VALID,97.2231,VALID,0,VALID,20.0849,VALID,128,VALID,0.526042,
2007-05-23, 01:16:00,VALID,917.039,VALID,0,VALID,96.3012,VALID,0,VALID,20.2052,VALID,113,VALID,0.45827,
2007-05-23, 01:17:00,VALID,917.03,VALID,0,VALID,95.5585,VALID,-0.0509425,VALID,20.2799,VALID,88,VALID,0.551525,
2007-05-23, 01:18:00,VALID,917.008,VALID,0,VALID,94.6087,VALID,-0.0509425,VALID,20.2604,VALID,102,VALID,0.386991,
2007-05-23, 01:19:00,VALID,916.982,VALID,0,VALID,94.5921,VALID,0,VALID,20.2474,VALID,96,VALID,1.00205,
2007-05-23, 01:20:00,VALID,916.977,VALID,0,VALID,94.5819,VALID,-0.0339617,VALID,20.2799,VALID,104,VALID,0.85026,
2007-05-23, 01:21:00,VALID,916.957,VALID,0,VALID,94.2462,VALID,-0.0169808,VALID,20.335,VALID,141,VALID,0.675781,
2007-05-23, 01:22:00,VALID,916.927,VALID,0,VALID,94.4001,VALID,0,VALID,20.3578,VALID,146,VALID,0.869673,
2007-05-23, 01:23:00,VALID,916.883,VALID,0,VALID,93.9652,VALID,-0.0169808,VALID,20.3867,VALID,111,VALID,0.958891,
2007-05-23, 01:24:00,VALID,916.856,VALID,0,VALID,93.7262,VALID,-0.0169808,VALID,20.4067,VALID,99,VALID,0.782965,
2007-05-23, 01:25:00,VALID,916.831,VALID,0,VALID,93.6728,VALID,0,VALID,20.39,VALID,113,VALID,1.04528,
2007-05-23, 01:26:00,VALID,916.781,VALID,0,VALID,93.791,VALID,0,VALID,20.4097,VALID,140,VALID,0.998397,
2007-05-23, 01:27:00,VALID,916.773,VALID,0,VALID,93.5456,VALID,-0.0339617,VALID,20.4489,VALID,133,VALID,0.884375,
2007-05-23, 01:28:00,VALID,916.756,VALID,0,VALID,93.2315,VALID,0.0169808,VALID,20.4748,VALID,128,VALID,1.09824,
2007-05-23, 01:29:00,VALID,916.743,VALID,0,VALID,93.0738,VALID,-0.0849042,VALID,20.4883,VALID,141,VALID,0.90811,
2007-05-23, 01:30:00,VALID,916.726,VALID,0,VALID,92.8869,VALID,-0.118866,VALID,20.4951,VALID,156,VALID,1.1077,
2007-05-23, 01:31:00,VALID,916.714,VALID,0,VALID,92.8653,VALID,-0.101885,VALID,20.5375,VALID,179,VALID,1.01543,
2007-05-23, 01:32:00,VALID,916.693,VALID,0,VALID,93.0115,VALID,-0.152827,VALID,20.5535,VALID,192,VALID,0.846608,
2007-05-23, 01:33:00,VALID,916.682,VALID,0,VALID,93.042,VALID,-0.135847,VALID,20.5732,VALID,186,VALID,0.852653,
2007-05-23, 01:34:00,VALID,916.67,VALID,0,VALID,92.7432,VALID,-0.118866,VALID,20.596,VALID,172,VALID,1.01634,
2007-05-23, 01:35:00,VALID,916.688,VALID,0,VALID,92.3083,VALID,-0.118866,VALID,20.6411,VALID,160,VALID,1.11235,
2007-05-23, 01:36:00,VALID,916.693,VALID,0,VALID,91.4665,VALID,-0.101885,VALID,20.7193,VALID,164,VALID,1.3373,
2007-05-23, 01:37:00,VALID,916.728,VALID,0,VALID,90.1161,VALID,-0.118866,VALID,20.8683,VALID,158,VALID,1.11533,
2007-05-23, 01:38:00,VALID,916.734,VALID,0,VALID,89.3862,VALID,-0.118866,VALID,21.0087,VALID,170,VALID,0.788261,
2007-05-23, 01:39:00,VALID,916.748,VALID,0,VALID,89.0288,VALID,-0.101885,VALID,21.0764,VALID,158,VALID,0.906944,
2007-05-23, 01:40:00,VALID,916.766,VALID,0,VALID,88.7415,VALID,-0.135847,VALID,21.1418,VALID,170,VALID,0.748666,
2007-05-23, 01:41:00,VALID,916.78,VALID,0,VALID,88.5495,VALID,-0.101885,VALID,21.1775,VALID,175,VALID,0.419457,
2007-05-23, 01:42:00,VALID,916.785,VALID,0,VALID,88.744,VALID,-0.118866,VALID,21.164,VALID,192,VALID,0.886347,
2007-05-23, 01:43:00,VALID,916.789,VALID,0,VALID,88.9373,VALID,-0.118866,VALID,21.1637,VALID,227,VALID,1.18197,
2007-05-23, 01:44:00,VALID,916.795,VALID,0,VALID,88.5431,VALID,-0.0509425,VALID,21.1889,VALID,191,VALID,1.28441,
2007-05-23, 01:45:00,VALID,916.785,VALID,0,VALID,88.0281,VALID,-0.0169808,VALID,21.2695,VALID,227,VALID,0.86044,
2007-05-23, 01:46:00,VALID,916.794,VALID,0,VALID,87.6759,VALID,0,VALID,21.3507,VALID,255,VALID,0.553961,
2007-05-23, 01:47:00,VALID,916.779,VALID,0,VALID,87.5551,VALID,0,VALID,21.4031,VALID,257,VALID,0.65532,
2007-05-23, 01:48:00,VALID,916.81,VALID,0,VALID,87.447,VALID,0,VALID,21.3958,VALID,242,VALID,0.474019,
2007-05-23, 01:49:00,VALID,916.763,VALID,0,VALID,87.7166,VALID,0.0169808,VALID,21.3902,VALID,246,VALID,0.696075,
2007-05-23, 01:50:00,VALID,916.726,VALID,0,VALID,88.4172,VALID,-0.0509425,VALID,21.3082,VALID,261,VALID,0.672585,
2007-05-23, 01:51:00,VALID,916.727,VALID,0,VALID,88.9322,VALID,-0.0169808,VALID,21.2049,VALID,262,VALID,0.184722,
2007-05-23, 01:52:00,VALID,916.718,VALID,0,VALID,89.3798,VALID,0,VALID,21.104,VALID,256,VALID,0.406064,
2007-05-23, 01:53:00,VALID,916.669,VALID,0,VALID,89.5642,VALID,0,VALID,21.0231,VALID,276,VALID,0.56593,
2007-05-23, 01:54:00,VALID,916.664,VALID,0,VALID,89.6125,VALID,-0.0169808,VALID,20.8997,VALID,71,VALID,1.03981,
2007-05-23, 01:55:00,VALID,916.651,VALID,0,VALID,89.835,VALID,0,VALID,20.8438,VALID,80,VALID,0.0279797,
2007-05-23, 01:56:00,VALID,916.656,VALID,0,VALID,90.0868,VALID,-0.0169808,VALID,20.8281,VALID,80,VALID,0.0496003,
2007-05-23, 01:57:00,VALID,916.657,VALID,0,VALID,90.3106,VALID,-0.0169808,VALID,20.7894,VALID,60,VALID,0.294922,
2007-05-23, 01:58:00,VALID,916.683,VALID,0,VALID,90.4899,VALID,-0.0339617,VALID,20.7245,VALID,49,VALID,0.577947,
2007-05-23, 01:59:00,VALID,916.687,VALID,0,VALID,90.5433,VALID,-0.0849042,VALID,20.6896,VALID,119,VALID,1.21751,
2007-05-23, 02:00:00,VALID,916.683,VALID,0,VALID,89.1713,VALID,-0.101885,VALID,20.8946,VALID,74,VALID,2.51472,
2007-05-23, 02:01:00,VALID,916.666,VALID,0,VALID,88.7186,VALID,-0.118866,VALID,21.0012,VALID,90,VALID,2.28143,
2007-05-23, 02:02:00,VALID,916.662,VALID,0,VALID,87.9251,VALID,-0.118866,VALID,21.2811,VALID,90,VALID,1.8552,
2007-05-23, 02:03:00,VALID,916.633,VALID,0,VALID,87.7305,VALID,-0.118866,VALID,21.3103,VALID,72,VALID,0.935213,
2007-05-23, 02:04:00,VALID,916.63,VALID,0,VALID,87.8831,VALID,-0.101885,VALID,21.2736,VALID,73,VALID,1.78561,
2007-05-23, 02:05:00,VALID,916.651,VALID,0,VALID,87.9696,VALID,-0.101885,VALID,21.2806,VALID,71,VALID,1.32344,
2007-05-23, 02:06:00,VALID,916.642,VALID,0,VALID,88.2023,VALID,-0.101885,VALID,21.2387,VALID,84,VALID,1.42522,
2007-05-23, 02:07:00,VALID,916.639,VALID,0,VALID,88.4223,VALID,-0.0849042,VALID,21.2216,VALID,75,VALID,2.48583,
2007-05-23, 02:08:00,VALID,916.621,VALID,0,VALID,88.3167,VALID,-0.101885,VALID,21.1935,VALID,132,VALID,2.11942,
2007-05-23, 02:09:00,VALID,916.619,VALID,0,VALID,87.845,VALID,-0.101885,VALID,21.3166,VALID,94,VALID,2.79459,
2007-05-23, 02:10:00,VALID,916.617,VALID,0,VALID,87.1494,VALID,-0.118866,VALID,21.4729,VALID,96,VALID,1.6896,
2007-05-23, 02:11:00,VALID,916.615,VALID,0,VALID,86.8811,VALID,-0.152827,VALID,21.5308,VALID,111,VALID,1.09775,
2007-05-23, 02:12:00,VALID,916.604,VALID,0,VALID,86.7018,VALID,-0.0849042,VALID,21.5668,VALID,110,VALID,1.56803,
2007-05-23, 02:13:00,VALID,916.615,VALID,0,VALID,86.0419,VALID,-0.101885,VALID,21.6872,VALID,120,VALID,2.27706,
2007-05-23, 02:14:00,VALID,916.585,VALID,0,VALID,85.6909,VALID,-0.0509425,VALID,21.7703,VALID,126,VALID,2.00254,
2007-05-23, 02:15:00,VALID,916.552,VALID,0,VALID,85.256,VALID,-0.0169808,VALID,21.8671,VALID,125,VALID,1.93189,
2007-05-23, 02:16:00,VALID,916.52,VALID,0,VALID,85.036,VALID,-0.0509425,VALID,21.9063,VALID,155,VALID,1.0396,
2007-05-23, 02:17:00,VALID,916.511,VALID,0,VALID,85.1059,VALID,-0.0169808,VALID,21.8969,VALID,176,VALID,1.19306,
2007-05-23, 02:18:00,VALID,916.503,VALID,0,VALID,85.0831,VALID,0,VALID,21.8798,VALID,156,VALID,1.36753,
2007-05-23, 02:19:00,VALID,916.508,VALID,0,VALID,84.9521,VALID,-0.0169808,VALID,21.8999,VALID,171,VALID,2.40069,
2007-05-23, 02:20:00,VALID,916.501,VALID,0,VALID,85.0882,VALID,0,VALID,21.9188,VALID,122,VALID,1.12393,
2007-05-23, 02:21:00,VALID,916.515,VALID,0,VALID,85.1848,VALID,0,VALID,21.8866,VALID,145,VALID,1.50949,
2007-05-23, 02:22:00,VALID,916.523,VALID,0,VALID,85.2598,VALID,0,VALID,21.8896,VALID,109,VALID,0.818824,
2007-05-23, 02:23:00,VALID,916.509,VALID,0,VALID,85.3437,VALID,-0.0169808,VALID,21.8541,VALID,131,VALID,0.924479,
2007-05-23, 02:24:00,VALID,916.522,VALID,0,VALID,85.5307,VALID,0,VALID,21.8157,VALID,153,VALID,1.33327,
2007-05-23, 02:25:00,VALID,916.538,VALID,0,VALID,85.2318,VALID,-0.0169808,VALID,21.8349,VALID,136,VALID,1.693,
2007-05-23, 02:26:00,VALID,916.537,VALID,0,VALID,84.975,VALID,0,VALID,21.9188,VALID,148,VALID,1.23021,
2007-05-23, 02:27:00,VALID,916.52,VALID,0,VALID,85.0742,VALID,0,VALID,21.915,VALID,137,VALID,0.238653,
2007-05-23, 02:28:00,VALID,916.513,VALID,0,VALID,85.2827,VALID,-0.0339617,VALID,21.8836,VALID,191,VALID,0.780523,
2007-05-23, 02:29:00,VALID,916.484,VALID,0,VALID,85.5294,VALID,0,VALID,21.8346,VALID,193,VALID,0.233487,
2007-05-23, 02:30:00,VALID,916.469,VALID,0,VALID,85.8104,VALID,0,VALID,21.7757,VALID,161,VALID,1.61643,
2007-05-23, 02:31:00,VALID,916.466,VALID,0,VALID,85.7659,VALID,0.0169808,VALID,21.7989,VALID,139,VALID,0.994186,
2007-05-23, 02:32:00,VALID,916.468,VALID,0,VALID,85.832,VALID,0,VALID,21.7984,VALID,148,VALID,0.872196,
2007-05-23, 02:33:00,VALID,916.484,VALID,0,VALID,85.9948,VALID,0,VALID,21.7762,VALID,140,VALID,1.21437,
2007-05-23, 02:34:00,VALID,916.51,VALID,0,VALID,86.1855,VALID,0.0169808,VALID,21.7334,VALID,129,VALID,1.05596,
2007-05-23, 02:35:00,VALID,916.508,VALID,0,VALID,86.239,VALID,0,VALID,21.724,VALID,159,VALID,1.54497,
2007-05-23, 02:36:00,VALID,916.534,VALID,0,VALID,86.2593,VALID,0,VALID,21.7567,VALID,151,VALID,2.05327,
2007-05-23, 02:37:00,VALID,916.524,VALID,0,VALID,86.2351,VALID,0,VALID,21.7862,VALID,132,VALID,1.87872,
2007-05-23, 02:38:00,VALID,916.515,VALID,0,VALID,86.4259,VALID,0.0509425,VALID,21.7632,VALID,136,VALID,1.51855,
2007-05-23, 02:39:00,VALID,916.493,VALID,0,VALID,86.4373,VALID,-0.0169808,VALID,21.7502,VALID,130,VALID,1.3287,
2007-05-23, 02:40:00,VALID,916.43,VALID,0,VALID,86.2199,VALID,-0.0339617,VALID,21.796,VALID,158,VALID,1.86979,
2007-05-23, 02:41:00,VALID,916.405,VALID,0,VALID,85.8702,VALID,0,VALID,21.8641,VALID,165,VALID,1.86804,
2007-05-23, 02:42:00,VALID,916.385,VALID,0,VALID,85.5726,VALID,-0.0169808,VALID,21.9285,VALID,176,VALID,1.21298,
2007-05-23, 02:43:00,VALID,916.383,VALID,0,VALID,85.551,VALID,-0.0169808,VALID,21.9515,VALID,160,VALID,1.59316,
2007-05-23, 02:44:00,VALID,916.382,VALID,0,VALID,85.5256,VALID,0,VALID,21.9645,VALID,140,VALID,1.86812,
2007-05-23, 02:45:00,VALID,916.375,VALID,0,VALID,85.3501,VALID,-0.0339617,VALID,21.9781,VALID,139,VALID,1.15662,
2007-05-23, 02:46:00,VALID,916.394,VALID,0,VALID,85.3285,VALID,-0.0169808,VALID,22.0037,VALID,166,VALID,1.31354,
2007-05-23, 02:47:00,VALID,916.376,VALID,0,VALID,85.2713,VALID,-0.0169808,VALID,22.007,VALID,147,VALID,1.80469,
2007-05-23, 02:48:00,VALID,916.393,VALID,0,VALID,85.2903,VALID,0,VALID,22.0227,VALID,167,VALID,1.08086,
2007-05-23, 02:49:00,VALID,916.398,VALID,0,VALID,85.3946,VALID,0,VALID,21.9908,VALID,174,VALID,1.26905,
2007-05-23, 02:50:00,VALID,916.4,VALID,0,VALID,85.4353,VALID,-0.0169808,VALID,21.9713,VALID,176,VALID,2.02687,
2007-05-23, 02:51:00,VALID,916.418,VALID,0,VALID,85.3921,VALID,0,VALID,21.997,VALID,170,VALID,1.64205,
2007-05-23, 02:52:00,VALID,916.418,VALID,0,VALID,85.4531,VALID,0,VALID,22.0067,VALID,169,VALID,0.668527,
2007-05-23, 02:53:00,VALID,916.408,VALID,0,VALID,85.6502,VALID,-0.0339617,VALID,21.9745,VALID,160,VALID,1.46191,
2007-05-23, 02:54:00,VALID,916.415,VALID,0,VALID,85.8689,VALID,-0.0339617,VALID,21.9418,VALID,162,VALID,1.1457,
2007-05-23, 02:55:00,VALID,916.415,VALID,0,VALID,86.0851,VALID,-0.0339617,VALID,21.9128,VALID,158,VALID,1.52707,
2007-05-23, 02:56:00,VALID,916.432,VALID,0,VALID,86.0317,VALID,0,VALID,21.9158,VALID,139,VALID,1.48864,
2007-05-23, 02:57:00,VALID,916.438,VALID,0,VALID,85.8206,VALID,-0.0169808,VALID,21.9778,VALID,147,VALID,1.93464,
2007-05-23, 02:58:00,VALID,916.448,VALID,0,VALID,85.6527,VALID,0,VALID,22.0102,VALID,141,VALID,1.35844,
2007-05-23, 02:59:00,VALID,916.454,VALID,0,VALID,85.6388,VALID,-0.0679233,VALID,22.0205,VALID,162,VALID,1.56473,
2007-05-23, 03:00:00,VALID,916.434,VALID,0,VALID,85.6006,VALID,-0.101885,VALID,22.0138,VALID,151,VALID,1.30962,
2007-05-23, 03:01:00,VALID,916.426,VALID,0,VALID,85.5586,VALID,-0.101885,VALID,22.0135,VALID,171,VALID,0.871548,
2007-05-23, 03:02:00,VALID,916.437,VALID,0,VALID,85.5625,VALID,-0.0849042,VALID,22.007,VALID,166,VALID,0.633929,
2007-05-23, 03:03:00,VALID,916.473,VALID,0,VALID,85.7532,VALID,-0.0849042,VALID,21.9937,VALID,125,VALID,0.919671,
2007-05-23, 03:04:00,VALID,916.466,VALID,0,VALID,85.9096,VALID,0.0339617,VALID,21.9637,VALID,150,VALID,0.647675,
2007-05-23, 03:05:00,VALID,916.485,VALID,0,VALID,86.1906,VALID,0,VALID,21.9377,VALID,93,VALID,0.825238,
2007-05-23, 03:06:00,VALID,916.472,VALID,0,VALID,86.4348,VALID,0,VALID,21.8436,VALID,140,VALID,0.797447,
2007-05-23, 03:07:00,VALID,916.452,VALID,0,VALID,86.6344,VALID,-0.0169808,VALID,21.8111,VALID,130,VALID,0.366257,
2007-05-23, 03:08:00,VALID,916.441,VALID,0,VALID,86.7972,VALID,-0.0169808,VALID,21.7951,VALID,101,VALID,0.670422,
2007-05-23, 03:09:00,VALID,916.432,VALID,0,VALID,86.8188,VALID,0,VALID,21.7884,VALID,77,VALID,0.652716,
2007-05-23, 03:10:00,VALID,916.425,VALID,0,VALID,86.7832,VALID,0.0169808,VALID,21.7816,VALID,112,VALID,1.1942,
2007-05-23, 03:11:00,VALID,916.44,VALID,0,VALID,86.623,VALID,0,VALID,21.8238,VALID,86,VALID,0.345567,
2007-05-23, 03:12:00,VALID,916.423,VALID,0,VALID,86.6509,VALID,-0.0169808,VALID,21.7987,VALID,86,VALID,0.231597,
2007-05-23, 03:13:00,VALID,916.43,VALID,0,VALID,86.8417,VALID,-0.0509425,VALID,21.7662,VALID,198,VALID,0.516927,
2007-05-23, 03:14:00,VALID,916.46,VALID,0,VALID,87.021,VALID,-0.0339617,VALID,21.7665,VALID,173,VALID,0.64375,
2007-05-23, 03:15:00,VALID,916.467,VALID,0,VALID,87.3198,VALID,-0.0339617,VALID,21.6493,VALID,93,VALID,0.581287,
2007-05-23, 03:16:00,VALID,916.455,VALID,0,VALID,87.8908,VALID,-0.0169808,VALID,21.5584,VALID,44,VALID,0.489025,
2007-05-23, 03:17:00,VALID,916.436,VALID,0,VALID,88.154,VALID,-0.0169808,VALID,21.5035,VALID,101,VALID,0.698847,
2007-05-23, 03:18:00,VALID,916.421,VALID,0,VALID,88.1336,VALID,-0.0169808,VALID,21.523,VALID,195,VALID,1.19311,
2007-05-23, 03:19:00,VALID,916.427,VALID,0,VALID,88.0853,VALID,-0.0169808,VALID,21.5425,VALID,76,VALID,0.77397,
2007-05-23, 03:20:00,VALID,916.385,VALID,0,VALID,88.0777,VALID,-0.0339617,VALID,21.5233,VALID,346,VALID,0.414971,
2007-05-23, 03:21:00,VALID,916.38,VALID,0,VALID,88.1705,VALID,-0.0339617,VALID,21.5132,VALID,298,VALID,0.3391,
2007-05-23, 03:22:00,VALID,916.355,VALID,0,VALID,88.2939,VALID,-0.0169808,VALID,21.51,VALID,192,VALID,0.303445,
2007-05-23, 03:23:00,VALID,916.332,VALID,0,VALID,88.4922,VALID,0.0169808,VALID,21.4632,VALID,53,VALID,0.554501,
2007-05-23, 03:24:00,VALID,916.282,VALID,0,VALID,88.463,VALID,0,VALID,21.467,VALID,53,VALID,1.17615,
2007-05-23, 03:25:00,VALID,916.341,VALID,0,VALID,88.201,VALID,0,VALID,21.5454,VALID,51,VALID,0.470109,
2007-05-23, 03:26:00,VALID,916.359,VALID,0,VALID,88.2773,VALID,0,VALID,21.5549,VALID,38,VALID,0.544643,
2007-05-23, 03:27:00,VALID,916.367,VALID,0,VALID,88.5088,VALID,0,VALID,21.513,VALID,192,VALID,1.04015,
2007-05-23, 03:28:00,VALID,916.366,VALID,0,VALID,88.3892,VALID,0,VALID,21.4994,VALID,176,VALID,0.933036,
2007-05-23, 03:29:00,VALID,916.391,VALID,0,VALID,88.3167,VALID,0,VALID,21.5419,VALID,159,VALID,0.913477,
2007-05-23, 03:30:00,VALID,916.372,VALID,0,VALID,88.112,VALID,0,VALID,21.5811,VALID,122,VALID,1.04757,
2007-05-23, 03:31:00,VALID,916.383,VALID,0,VALID,87.7522,VALID,0,VALID,21.6715,VALID,132,VALID,0.700763,
2007-05-23, 03:32:00,VALID,916.376,VALID,0,VALID,87.5678,VALID,-0.0169808,VALID,21.7078,VALID,187,VALID,0.61109,
2007-05-23, 03:33:00,VALID,916.389,VALID,0,VALID,87.5525,VALID,0,VALID,21.7205,VALID,147,VALID,0.452592,